Location: Les Jeannots
(43.2262°N, 5.5774°E)
Time: 02:51:33
(UTC+00:00)

Cosmos 1610 Rocket - Pass Details

Date: 05 July 2020
Orbit: 953 x 1002 km, 82.9° (Epoch: 04 August)

Event Time Altitude Azimuth Distance (km) Brightness Sun altitude
Exits shadow 22:11:20 36° 178° (S) 1,522 5.0 -20.9°
Maximum altitude 22:14:09 81° 96° (E) 1,008 4.5 -21.0°
Drops below altitude 10° 22:20:32 10° 10° (N) 2,777 7.7 -21.5°
Sets 22:23:05 0° 9° (N) 3,734 8.6 -21.6°
